#timestamp,LO_Frequency,Hit,Temp,Hum 
1488034815.1,286047043.3,N,0.0,0.0
1488034835.9,286047041.9,N,0.0,0.0
1488034855.7,286047041.2,N,0.0,0.0
1488034875.5,286047043.9,N,0.0,0.0
1488034895.4,286047042.5,N,0.0,0.0
1488034915.2,286047040.2,N,0.0,0.0
1488034935.0,286047043.8,N,0.0,0.0
1488034935.9,286047043.8,N,0.0,0.0
1488034955.8,286047045.2,N,0.0,0.0
1488034975.6,286047047.4,N,0.0,0.0
1488034995.4,286047044.9,N,0.0,0.0
1488035015.3,286047045.8,N,0.0,0.0
1488035035.1,286047044.8,N,0.0,0.0
1488035036.0,286047044.8,N,0.0,0.0
1488035055.8,286047044.3,N,0.0,0.0
1488035075.7,286047044.2,N,0.0,0.0
1488035095.5,286047045.6,N,0.0,0.0
1488035115.3,286047046.2,N,0.0,0.0
1488035135.1,286047051.3,N,0.0,0.0
1488035155.9,286047054.0,N,0.0,0.0
1488035175.7,286047051.6,N,0.0,0.0
1488035195.5,286047046.9,N,0.0,0.0
1488035215.4,286047045.6,N,0.0,0.0
1488035235.2,286047044.8,N,0.0,0.0
1488035255.0,286047043.2,N,0.0,0.0
1488035255.9,286047043.2,N,0.0,0.0
1488035275.8,286047043.2,N,0.0,0.0
1488035295.6,286047045.6,N,0.0,0.0
1488035315.4,286047049.0,N,0.0,0.0
1488035335.3,286047051.8,N,0.0,0.0
1488035355.1,286047049.3,N,0.0,0.0
1488035375.8,286047049.4,N,0.0,0.0
1488035395.7,286047049.0,N,0.0,0.0
1488035415.5,286047046.7,N,0.0,0.0
1488035435.3,286047048.7,N,0.0,0.0
1488035455.2,286047046.7,N,0.0,0.0
1488035475.9,286047046.1,N,0.0,0.0
1488035495.7,286047044.9,N,0.0,0.0
1488035515.6,286047046.3,N,0.0,0.0
1488035535.4,286047046.5,N,0.0,0.0
1488035555.2,286047049.8,N,0.0,0.0
1488035575.0,286047050.4,N,0.0,0.0
1488035576.0,286047050.4,N,0.0,0.0
1488035595.8,286047052.0,N,0.0,0.0
1488035615.6,286047048.1,N,0.0,0.0
1488035635.4,286047051.8,N,0.0,0.0
1488035655.3,286047051.2,N,0.0,0.0
1488035675.1,286047053.5,N,0.0,0.0
1488035695.8,286047053.0,N,0.0,0.0
1488035715.7,286047053.7,N,0.0,0.0
1488035735.5,286047051.9,N,0.0,0.0
1488035755.3,286047052.1,N,0.0,0.0
1488035775.2,286047050.9,N,0.0,0.0
1488035795.9,286047049.4,N,0.0,0.0
1488035815.7,286047053.6,N,0.0,0.0
1488035835.6,286047051.7,N,0.0,0.0
1488035855.4,286047051.4,N,0.0,0.0
1488035875.2,286047051.1,N,0.0,0.0
1488035895.1,286047051.8,N,0.0,0.0
1488035896.0,286047051.8,N,0.0,0.0
1488035915.8,286047050.9,N,0.0,0.0
1488035935.6,286047052.7,N,0.0,0.0
1488035955.5,286047053.8,N,0.0,0.0
1488035975.3,286047051.6,N,0.0,0.0
1488035995.1,286047051.0,N,0.0,0.0
1488036015.9,286047052.5,N,0.0,0.0
1488036035.7,286047054.3,N,0.0,0.0
1488036055.5,286047055.1,N,0.0,0.0
1488036075.4,286047054.9,N,0.0,0.0
1488036095.2,286047053.9,N,0.0,0.0
1488036115.0,286047054.7,N,0.0,0.0
1488036115.9,286047054.7,N,0.0,0.0
1488036135.8,286047051.1,N,0.0,0.0
1488036155.6,286047049.7,N,0.0,0.0
1488036175.4,286047049.3,N,0.0,0.0
1488036195.3,286047051.2,N,0.0,0.0
1488036215.1,286047050.3,N,0.0,0.0
1488036216.0,286047050.3,N,0.0,0.0
1488036235.8,286047052.7,N,0.0,0.0
1488036255.7,286047056.5,N,0.0,0.0
1488036275.5,286047056.3,N,0.0,0.0
1488036295.3,286047058.4,N,0.0,0.0
1488036315.1,286047056.0,N,0.0,0.0
1488036335.9,286047055.8,N,0.0,0.0
1488036355.7,286047055.0,N,0.0,0.0
1488036375.5,286047057.0,N,0.0,0.0
1488036395.4,286047056.9,N,0.0,0.0
1488036415.2,286047058.1,N,0.0,0.0
1488036435.0,286047057.1,N,0.0,0.0
1488036435.9,286047057.1,N,0.0,0.0
1488036455.8,286047058.5,N,0.0,0.0
1488036475.6,286047057.8,N,0.0,0.0
1488036495.4,286047058.0,N,0.0,0.0
1488036515.3,286047058.6,N,0.0,0.0
1488036535.1,286047059.5,N,0.0,0.0
1488036536.0,286047059.5,N,0.0,0.0
1488036555.8,286047062.7,N,0.0,0.0
1488036575.7,286047059.8,N,0.0,0.0
1488036595.5,286047061.8,N,0.0,0.0
1488036615.3,286047061.8,N,0.0,0.0
1488036635.2,286047063.6,N,0.0,0.0
1488036655.9,286047061.0,N,0.0,0.0
1488036675.7,286047061.7,N,0.0,0.0
1488036695.6,286047060.7,N,0.0,0.0
1488036715.4,286047063.4,N,0.0,0.0
1488036735.2,286047064.7,N,0.0,0.0
1488036755.1,286047063.3,N,0.0,0.0
1488036756.0,286047063.3,N,0.0,0.0
1488036775.8,286047067.8,N,0.0,0.0
1488036795.6,286047066.7,N,0.0,0.0
1488036815.5,286047070.0,N,0.0,0.0
1488036835.3,286047069.8,N,0.0,0.0
1488036855.1,286047067.6,N,0.0,0.0
1488036875.8,286047073.1,N,0.0,0.0
1488036895.7,286047070.4,N,0.0,0.0
1488036915.5,286047071.1,N,0.0,0.0
1488036935.3,286047070.2,N,0.0,0.0
1488036955.2,286047073.9,N,0.0,0.0
1488036975.0,286047071.0,N,0.0,0.0
1488036975.9,286047071.0,N,0.0,0.0
1488036995.7,286047073.0,N,0.0,0.0
1488037015.6,286047075.8,N,0.0,0.0
1488037035.4,286047070.0,N,0.0,0.0
1488037055.2,286047067.9,N,0.0,0.0
1488037075.1,286047069.1,N,0.0,0.0
1488037076.0,286047069.1,N,0.0,0.0
1488037095.8,286047070.3,N,0.0,0.0
1488037115.6,286047072.3,N,0.0,0.0
1488037135.5,286047071.8,N,0.0,0.0
1488037155.3,286047072.7,N,0.0,0.0
1488037175.1,286047087.5,N,0.0,0.0
1488037195.9,286047076.2,N,0.0,0.0
1488037215.7,286047073.5,N,0.0,0.0
1488037235.5,286047078.7,N,0.0,0.0
1488037255.4,286047076.8,N,0.0,0.0
1488037275.2,286047078.3,N,0.0,0.0
1488037295.0,286047078.7,N,0.0,0.0
1488037295.9,286047078.7,N,0.0,0.0
1488037315.8,286047080.6,N,0.0,0.0
1488037335.6,286047082.4,N,0.0,0.0
1488037355.4,286047084.7,N,0.0,0.0
1488037375.3,286047083.5,N,0.0,0.0
1488037395.1,286047083.4,N,0.0,0.0
1488037396.0,286047083.4,N,0.0,0.0
1488037415.8,286047085.6,N,0.0,0.0
1488037435.7,286047086.2,N,0.0,0.0
1488037455.5,286047086.8,N,0.0,0.0
1488037475.3,286047086.9,N,0.0,0.0
1488037495.1,286047087.1,N,0.0,0.0
1488037515.9,286047089.1,N,0.0,0.0
1488037535.7,286047090.4,Y,0.0,0.0
1488037555.6,286047054.1,N,0.0,0.0
1488037575.4,286047056.1,N,0.0,0.0
1488037595.2,286047057.4,N,0.0,0.0
1488037615.0,286047057.8,N,0.0,0.0
1488037616.0,286047057.8,N,0.0,0.0
1488037635.8,286047060.2,N,0.0,0.0
1488037655.6,286047056.1,N,0.0,0.0
1488037675.4,286047056.4,N,0.0,0.0
1488037695.3,286047059.0,N,0.0,0.0
1488037715.1,286047064.5,N,0.0,0.0
1488037735.8,286047066.1,N,0.0,0.0
1488037755.7,286047061.5,N,0.0,0.0
1488037775.5,286047059.4,N,0.0,0.0
1488037795.3,286047060.7,N,0.0,0.0
1488037815.2,286047059.3,N,0.0,0.0
1488037835.9,286047061.7,N,0.0,0.0
1488037855.7,286047056.6,N,0.0,0.0
1488037875.6,286047052.5,N,0.0,0.0
1488037895.4,286047051.3,N,0.0,0.0
1488037915.2,286047050.1,N,0.0,0.0
1488037935.1,286047050.6,N,0.0,0.0
1488037936.0,286047050.6,N,0.0,0.0
1488037955.8,286047052.2,N,0.0,0.0
1488037975.6,286047049.9,N,0.0,0.0
1488037995.5,286047049.0,N,0.0,0.0
1488038015.3,286047044.6,N,0.0,0.0
1488038035.1,286047043.2,N,0.0,0.0
1488038055.9,286047044.3,N,0.0,0.0
1488038075.7,286047043.9,N,0.0,0.0
1488038095.5,286047041.4,N,0.0,0.0
1488038115.4,286047040.1,N,0.0,0.0
1488038135.2,286047038.3,N,0.0,0.0
1488038155.0,286047037.7,N,0.0,0.0
1488038155.9,286047037.7,N,0.0,0.0
1488038175.8,286047036.3,N,0.0,0.0
1488038195.6,286047032.1,N,0.0,0.0
1488038215.4,286047033.1,N,0.0,0.0
1488038235.2,286047029.1,N,0.0,0.0
1488038255.1,286047031.6,N,0.0,0.0
1488038256.0,286047031.6,N,0.0,0.0
1488038275.8,286047029.8,N,0.0,0.0
1488038295.6,286047027.7,N,0.0,0.0
1488038315.5,286047027.9,N,0.0,0.0
1488038335.3,286047024.4,N,0.0,0.0
1488038355.1,286047023.4,N,0.0,0.0
1488038375.9,286047020.9,N,0.0,0.0
1488038395.7,286047020.6,N,0.0,0.0
